GPS BIIR-8 (PRN 16)

Last updated on Wed Jun 24 2026 00:03:27 GMT+0000 (Coordinated Universal Time)

1 27663U 03005A 26173.14469260 .00000038 00000+0 00000+0 0 9992 2 27663 54.8815 214.7718 0147979 53.0867 346.2445 2.00560345171410
UTC large
Height (km)
Speed (km/s)
/
Latitude / Longitude
Inclination (degrees)
Orbital Period (minutes)
Azimuth
Elevation
Range (km)
Doppler Factor

Next 0 passes for location: London (51.5072 / 0.1276)

No passes found over London.
GPS BIIR-8 (PRN 16)